Watonga, OK

8:36 AM CST on February 22, 2017 (GMT -0600)
Watonga

Weather History for KJWG - February, 2013

Change the Weather History Date:

Wednesday, February 6, 2013

  Actual Average Record
Temperature  
Mean Temperature 50 °F -  
Max Temperature 61 °F 46 °F 75 °F (2017)
Min Temperature 38 °F 22 °F 2 °F (1982)
Degree Days  
Heating Degree Days 16    
Moisture  
Dew Point 52 °F    
Average Humidity 97    
Maximum Humidity 100    
Minimum Humidity 85    
Precipitation  
Precipitation 0.00 in - - ()
Sea Level Pressure  
Sea Level Pressure 29.93 in    
Wind  
Wind Speed 6 mph (SSE)    
Max Wind Speed 21 mph    
Max Gust Speed 29 mph    
Visibility 5 miles    
Events Fog    
Averages and records for this station are not official NWS values.
T = Trace of Precipitation, MM = Missing Value Source: NWS Daily Summary

Daily Weather History Graph

Daily Weather History Graph

Search for Another Location

Airport or City:

Trip Planner

Search our weather history database for the weather conditions in past years. The results will help you decide how hot, cold, wet, or windy it might be!

Date:

Astronomy

Feb. 06, 2013 Rise Set
Actual Time 7:29 AM CST 6:06 PM CST
Civil Twilight 7:02 AM CST 6:33 PM CST
Nautical Twilight 6:32 AM CST 7:03 PM CST
Astronomical Twilight 6:02 AM CST 7:33 PM CST
Moon 4:10 AM CST (2/6) 2:29 PM CST (2/6)
Length of Visible Light 11h 30m
Length of Day
10h 36m
Waning Crescent, 17% of the Moon is Illuminated
Feb 6
Waning Crescent
Feb 10
New
Feb 17
First Quarter
Feb 25
Full
Mar 4
Last Quarter

Hourly Weather History & Observations

Time (CST) Temp. Windchill Dew Point Humidity Pressure Visibility Wind Dir Wind Speed Gust Speed Precip Events Conditions
12:15 AM 38.5 °F 36.1 °F 35.2 °F 88% 30.03 in 10.0 mi South 3.5 mph - N/A   Scattered Clouds
12:35 AM 41.0 °F 39.0 °F 37.4 °F 87% 30.03 in 10.0 mi SSW 3.5 mph - N/A   Scattered Clouds
12:55 AM 41.9 °F 40.0 °F 41.9 °F 100% 30.03 in 0.2 mi SW 3.5 mph - N/A Fog Fog
1:15 AM 43.3 °F 41.7 °F 43.3 °F 100% 30.02 in 0.2 mi South 3.5 mph - N/A Fog Fog
1:35 AM 43.7 °F - 43.7 °F 100% 30.02 in 0.2 mi Calm Calm - N/A Fog Fog
1:55 AM 44.2 °F - 44.2 °F 100% 30.02 in 0.2 mi Calm Calm - N/A Fog Fog
2:15 AM 44.8 °F - 44.8 °F 100% 30.02 in 0.2 mi Calm Calm - N/A Fog Fog
2:35 AM 45.5 °F - 45.5 °F 100% 30.02 in 0.2 mi Calm Calm - N/A Fog Fog
2:55 AM 45.5 °F - 45.5 °F 100% 30.01 in 0.2 mi Calm Calm - N/A Fog Fog
3:15 AM 45.7 °F - 45.7 °F 100% 30.01 in 0.2 mi Calm Calm - N/A Fog Fog
3:35 AM 45.9 °F - 45.9 °F 100% 30.01 in 0.2 mi Calm Calm - N/A Fog Fog
3:55 AM 46.0 °F - 46.0 °F 100% 30.00 in 0.2 mi Calm Calm - N/A Fog Fog
4:15 AM 46.6 °F - 46.6 °F 100% 30.00 in 0.5 mi Calm Calm - N/A Fog Fog
4:35 AM 46.6 °F - 46.6 °F 100% 30.00 in 0.8 mi Calm Calm - N/A   Overcast
4:55 AM 46.8 °F - 46.8 °F 100% 29.99 in 0.8 mi Calm Calm - N/A   Overcast
5:15 AM 47.3 °F - 47.3 °F 100% 30.00 in 1.5 mi East 3.5 mph - N/A   Overcast
5:35 AM 47.5 °F - 47.5 °F 100% 30.00 in 0.8 mi East 3.5 mph - N/A   Overcast
5:55 AM 47.8 °F - 47.8 °F 100% 30.00 in 0.5 mi Calm Calm - N/A Fog Fog
6:15 AM 48.4 °F - 48.4 °F 100% 30.01 in 0.5 mi SSE 4.6 mph - N/A Fog Fog
6:35 AM 48.9 °F - 48.9 °F 100% 30.00 in 1.0 mi SE 3.5 mph - N/A   Overcast
6:55 AM 49.3 °F - 49.3 °F 100% 30.00 in 2.0 mi SE 4.6 mph - N/A   Overcast
7:15 AM 49.5 °F - 49.5 °F 100% 30.00 in 3.0 mi SE 4.6 mph - N/A   Overcast
7:35 AM 49.6 °F - 49.6 °F 100% 30.00 in 2.0 mi ESE 5.8 mph - N/A   Overcast
8:15 AM 47.7 °F - 47.7 °F 100% 30.00 in 0.2 mi East 4.6 mph - N/A Fog Fog
8:35 AM 48.6 °F - 48.6 °F 100% 30.00 in 0.2 mi ESE 5.8 mph - N/A Fog Fog
8:55 AM 48.7 °F - 48.7 °F 100% 30.00 in 0.2 mi SE 4.6 mph - N/A Fog Fog
9:15 AM 49.5 °F - 49.5 °F 100% 30.00 in 0.5 mi SE 6.9 mph - N/A Fog Fog
9:35 AM 50.2 °F - 50.2 °F 100% 29.99 in 0.8 mi SE 5.8 mph - N/A   Overcast
9:55 AM 50.9 °F - 50.9 °F 100% 29.99 in 1.2 mi SSE 6.9 mph - N/A   Overcast
10:15 AM 52.2 °F - 52.2 °F 100% 29.99 in 1.2 mi SSE 5.8 mph - N/A   Overcast
10:35 AM 52.5 °F - 52.5 °F 100% 29.99 in 0.5 mi SE 6.9 mph - N/A Fog Fog
10:55 AM 52.7 °F - 52.7 °F 100% 29.98 in 1.8 mi SSE 10.4 mph - N/A   Overcast
11:15 AM 53.6 °F - 53.6 °F 100% 29.97 in 3.0 mi SSE 10.4 mph - N/A   Overcast
11:35 AM 54.9 °F - 54.9 °F 100% 29.97 in 7.0 mi SSE 11.5 mph - N/A   Overcast
11:55 AM 54.9 °F - 54.9 °F 100% 29.96 in 7.0 mi SSE 9.2 mph - N/A   Overcast
12:15 PM 55.4 °F - 55.4 °F 100% 29.96 in 10.0 mi SSE 12.7 mph - N/A   Overcast
12:35 PM 56.3 °F - 56.3 °F 100% 29.94 in 10.0 mi SSE 10.4 mph - N/A   Overcast
12:55 PM 57.0 °F - 57.0 °F 100% 29.92 in 10.0 mi South 8.1 mph - N/A   Overcast
1:15 PM 57.9 °F - 57.2 °F 97% 29.91 in 10.0 mi South 11.5 mph 17.3 mph N/A   Overcast
1:35 PM 58.8 °F - 57.0 °F 94% 29.90 in 10.0 mi South 10.4 mph - N/A   Overcast
1:55 PM 58.8 °F - 56.8 °F 93% 29.89 in 10.0 mi SSE 12.7 mph - N/A   Overcast
2:15 PM 59.0 °F - 57.4 °F 94% 29.87 in 10.0 mi South 13.8 mph 18.4 mph N/A   Overcast
2:35 PM 59.9 °F - 57.4 °F 91% 29.87 in 10.0 mi South 11.5 mph 20.7 mph N/A   Overcast
2:55 PM 59.9 °F - 57.7 °F 93% 29.86 in 10.0 mi SSE 10.4 mph 16.1 mph N/A   Overcast
3:15 PM 59.9 °F - 56.3 °F 88% 29.85 in 10.0 mi SSE 12.7 mph 17.3 mph N/A   Overcast
3:35 PM 60.3 °F - 56.7 °F 88% 29.85 in 10.0 mi SSE 11.5 mph - N/A   Overcast
3:55 PM 60.6 °F - 56.5 °F 86% 29.84 in 10.0 mi SE 12.7 mph 17.3 mph N/A   Overcast
4:15 PM 61.2 °F - 56.8 °F 86% 29.83 in 10.0 mi SE 10.4 mph - N/A   Overcast
4:35 PM 61.3 °F - 56.8 °F 85% 29.83 in 10.0 mi SE 9.2 mph - N/A   Overcast
4:55 PM 61.3 °F - 57.2 °F 86% 29.82 in 10.0 mi SE 10.4 mph - N/A   Mostly Cloudy
5:15 PM 61.9 °F - 57.2 °F 85% 29.82 in 10.0 mi SSE 11.5 mph - N/A   Mostly Cloudy
5:35 PM 61.7 °F - 57.2 °F 85% 29.82 in 10.0 mi SSE 13.8 mph 20.7 mph N/A   Mostly Cloudy
5:55 PM 60.1 °F - 57.2 °F 90% 29.82 in 10.0 mi SE 13.8 mph 19.6 mph N/A   Scattered Clouds
6:15 PM 59.0 °F - 57.6 °F 95% 29.82 in 10.0 mi SE 10.4 mph - N/A   Clear
6:35 PM 57.7 °F - 57.7 °F 100% 29.83 in 7.0 mi SE 8.1 mph - N/A   Clear
6:55 PM 57.9 °F - 57.9 °F 100% 29.83 in 7.0 mi SE 9.2 mph - N/A   Mostly Cloudy
7:15 PM 58.3 °F - 58.3 °F 100% 29.83 in 7.0 mi SSE 11.5 mph - N/A   Overcast
7:35 PM 58.3 °F - 58.3 °F 100% 29.83 in 7.0 mi SE 9.2 mph - N/A   Overcast
7:55 PM 58.5 °F - 58.5 °F 100% 29.83 in 5.0 mi SE 10.4 mph - N/A   Overcast
8:35 PM 57.7 °F - 57.7 °F 100% 29.83 in 4.0 mi SSE 12.7 mph 21.9 mph N/A   Overcast
8:55 PM 56.8 °F - 56.8 °F 100% 29.83 in 4.0 mi SSE 17.3 mph 26.5 mph N/A   Overcast
9:15 PM 56.3 °F - 56.3 °F 100% 29.83 in 4.0 mi SSE 18.4 mph 21.9 mph N/A   Overcast
9:35 PM 56.3 °F - 56.3 °F 100% 29.83 in 4.0 mi SSE 15.0 mph 27.6 mph N/A   Overcast
9:55 PM 56.3 °F - 56.3 °F 100% 29.83 in 4.0 mi SSE 17.3 mph 24.2 mph N/A   Overcast
10:35 PM 56.5 °F - 56.5 °F 100% 29.83 in 5.0 mi South 20.7 mph 26.5 mph N/A   Overcast
10:55 PM 56.8 °F - 56.8 °F 100% 29.83 in 5.0 mi South 16.1 mph 24.2 mph N/A   Overcast
11:15 PM 57.2 °F - 57.2 °F 100% 29.83 in 7.0 mi South 18.4 mph 26.5 mph N/A   Overcast
11:35 PM 57.7 °F - 57.7 °F 100% 29.83 in 7.0 mi SSE 18.4 mph 28.8 mph N/A   Overcast
11:55 PM 58.1 °F - 58.1 °F 100% 29.83 in 10.0 mi SSE 13.8 mph 26.5 mph N/A   Overcast